626  
ASUS41 KPHI 250212  
RWRPHI  
 
REGIONAL WEATHER ROUNDUP  
NATIONAL WEATHER SERVICE MOUNT HOLLY NJ  
1000 PM EDT FRI SEP 24 2021  
 
NOTE: "FAIR" INDICATES FEW OR NO CLOUDS BELOW 12,000 FEET WITH NO  
SIGNIFICANT WEATHER AND/OR S TO VISIBILITY
.  
 
* = STATION DOES NOT REPORT PRECIPITATION (E.G. RAIN, SNOW, ETC.)  
OR FOG.
 
 
NJZ015>026-250300-  
SOUTHERN NEW JERSEY  
 
CITY SKY/WX TMP DP RH WIND PRES REMARKS
 
POMONA PTCLDY 58 54 86 NW3 30.08R  
WILDWOOD* CLEAR 62 53 72 CALM 30.09R  
MILLVILLE CLEAR 54 52 93 CALM 30.09R  
WRIGHTSTOWN CLEAR 56 52 86 CALM 30.08R  
MOUNT HOLLY CLEAR 56 53 90 CALM 30.08S  
TRENTON CLEAR 58 54 86 NW5 30.08S  
 

 
NJZ001>014-250300-  
NORTHERN NEW JERSEY  
 
CITY SKY/WX TMP DP RH WIND PRES REMARKS
 
SUSSEX CLEAR 54 53 97 CALM 30.10R  
ANDOVER* N/A 56 54 93 CALM 30.09R  
MORRISTOWN CLEAR 55 54 94 CALM 30.09R  
NEWARK PTCLDY 67 51 56 W8 30.07R  
TETERBORO CLEAR 62 52 69 N5 30.06R  
CALDWELL CLEAR 61 54 77 CALM 30.08S  
SOMERVILLE CLEAR 55 55 100 CALM 30.07R  
ALLAIRE* CLEAR 60 55 83 NW3 30.09S  
 

 
PAZ043-044-047-054-055-060>062-066>071-250300-  
EASTERN PENNSYLVANIA  
 
CITY SKY/WX TMP DP RH WIND PRES REMARKS
 
PHILADELPHIA CLEAR 64 49 57 NW5 30.08S  
NORTH PHILA CLEAR 59 51 75 CALM 30.10R  
BLUE BELL* CLEAR 53 52 97 CALM 30.09S  
DOYLESTOWN CLEAR 56 51 84 CALM 30.08S  
QUAKERTOWN* CLEAR 54 54 100 CALM 30.09S  
PERKASIE* FAIR 52 52 100 CALM 30.10S  
POTTSTOWN CLEAR 53 51 93 CALM 30.10S  
LANCASTER CLEAR 57 51 80 E3 30.08S  
COATESVILLE CLEAR 54 52 94 CALM 30.10S  
WEST CHESTER FAIR 57 52 82 CALM 30.09S  
READING CLEAR 58 55 90 CALM 30.07S  
ALLENTOWN CLEAR 56 49 77 CALM 30.08S  
QN CITY/ALNTWN FAIR 55 52 88 CALM 30.09S  
MOUNT POCONO CLEAR 48 47 96 CALM 30.10F  
HAZLETON CLEAR 48 46 93 CALM 30.13S  
LEHIGHTON FAIR 54 54 100 CALM 30.10S  
WILKES BARRE CLEAR 56 49 77 E7 30.08S  
 

 
DEZALL-MDZ008-012-015-019-020-250300-  
DELAWARE AND EASTERN MARYLAND  
 
CITY SKY/WX TMP DP RH WIND PRES REMARKS
 
WILMINGTON CLEAR 60 53 77 NW3 30.09S  
DOVER CLEAR 60 50 68 CALM 30.07S HAZE  
CHESWOLD CLEAR 55 54 94 CALM 30.09S  
GEORGETOWN CLEAR 57 53 86 CALM 30.09R  
EASTON CLEAR 57 57 100 CALM 30.12S  
ABERDEEN CLEAR 55 54 97 CALM 30.07S  
PATUXENT CLEAR 58 54 86 SW5 30.08S  
OCEAN CITY N/A N/A N/A N/A MISG 30.08S  
WALLOPS ISLAND CLEAR 62 53 72 N3 30.09R  
CAMBRIDGE CLEAR 55 55 100 CALM 30.09S  
SALISBURY CLEAR 58 54 86 CALM 30.08S  
 

 
PAZ001-021-NYZ056-072-MDZ011-DCZ001-250300-  
OTHER NEARBY LOCATIONS  
 
CITY SKY/WX TMP DP RH WIND PRES REMARKS
 
HARRISBURG CLEAR 60 53 77 E6 30.07S  
STATE COLLEGE PTCLDY 55 48 76 CALM 30.09R  
WILLIAMSPORT CLEAR 54 51 90 CALM 30.06R  
BINGHAMTON CLEAR 54 48 80 S6 30.06S  
NEW YORK CITY CLEAR 65 50 58 MISG 30.10R  
BALTIMORE CLEAR 58 52 80 CALM 30.08S  
WASHINGTON DC CLEAR 64 51 62 W3 30.09S  
 

 
 
 
CLICK HERE TO GO TO PREVIOUS BULLETINS.

The Nexlab PA Page
The Nexlab NJ Page
The Nexlab DE Page
The Nexlab MD Page Main Text Page